Regional Weather Roundup
Issued by NWS Green Bay, WI

Home | Current Version | Previous Version | Text Only | Print | Product List | Glossary On
Versions: 1 2 3 4 5 6 7 8 9 10 11 12 13 14 15 16 17 18 19 20 21 22 23 24 25 26 27 28 29 30 31 32 33 34 35 36 37 38 39 40 41 42 43 44 45 46 47 48 49 50
000
ASUS43 KGRB 231210
RWRGRB

NORTH-CENTRAL AND NORTHEAST WISCONSIN REGIONAL WEATHER ROUNDUP
NATIONAL WEATHER SERVICE GREEN BAY WI
700 AM CDT TUE SEP 23 2014

WIZ005-009-010>012-018-019-231300-
NORTH CENTRAL WISCONSIN

CITY           SKY/WX    TMP DP  RH WIND       PRES   REMARKS
IRONWOOD       CLEAR     45  45 100 CALM      30.20R
MANITOWISH WTR PTCLDY    38  38 100 CALM      30.24R FOG
ARBOR VITAE    CLEAR     42  41  95 CALM      30.25R
EAGLE RIVER    FOG       39  39 100 CALM      30.25R VSB 1/4
LAND O LAKES     N/A     36  36 100 CALM      30.25R FOG
RHINELANDER    FOG       41  41 100 CALM      30.26R VSB 1/4
PHILLIPS         N/A     41  40  99 CALM      30.24R FOG
ANTIGO         FOG       41  41 100 CALM      30.27R VSB<1/4
TOMAHAWK       CLEAR     39  38  97 CALM      30.26R
MERRILL        FOG       37  37 100 CALM      30.27R VSB 1/2
$$

WIZ013-073-231300-
NORTHEAST WISCONSIN

CITY           SKY/WX    TMP DP  RH WIND       PRES   REMARKS
IRON MOUNTAIN  CLEAR     50  46  86 NW5       30.22R
MARINETTE      CLEAR     48  46  93 CALM      30.23R
OCONTO         CLEAR     46  46 100 CALM      30.25R
$$

WIZ017-030-035>037-045-231300-
CENTRAL WISCONSIN

CITY           SKY/WX    TMP DP  RH WIND       PRES   REMARKS
MEDFORD        FOG       40  40 100 CALM      30.26R VSB 1/4
WAUSAU         CLEAR     44  43  96 CALM      30.26R FOG
MOSINEE        FOG       43  43 100 CALM      30.27R VSB 3/4
MARSHFIELD     FOG       45  44  97 CALM      30.26R VSB 1/4
WISC RAPIDS    CLEAR     41  41 100 CALM      30.28R FOG
STEVENS POINT  FOG       39  38  99 CALM      30.28R VSB 3/4
WAUPACA          N/A     45  43  95 CALM      30.27R FOG
SHAWANO        CLEAR     47  46  95 CALM      30.26S
CLINTONVILLE   CLOUDY    43  41  93 CALM      30.26S FOG
$$

WIZ038-039-048-051-231300-
FOX VALLEY

CITY           SKY/WX    TMP DP  RH WIND       PRES   REMARKS
NWS GREEN BAY  CLEAR     45  45 100 SW3       30.26R FOG
APPLETON       CLEAR     48  48 100 VRB3      30.27R
OSHKOSH        CLEAR     47  45  93 SW5       30.27R
FOND DU LAC    CLEAR     46  43  89 S5        30.28R
$$

WIZ022-050-052-231300-
EAST CENTRAL WISCONSIN

CITY           SKY/WX    TMP DP  RH WIND       PRES   REMARKS
STURGEON BAY   CLEAR     54  48  82 SW7       30.25R
MANITOWOC      CLEAR     52  50  93 W6        30.27R
SHEBOYGAN      CLEAR     43  43 100 SW3       30.28R
$$

LMZ563-521-522-541>543-231300-
LAKESHORE

STATION/POSITION TIME  TEMP    WIND        PRES    VSBY  WAVE
                       AIR SEA DIR/SP/G                  HT/PER
                 (UTC) (F)     (DEG/KT/KT) (MB)    (MI)  (FT/S)
SHEBOYGAN LKSHOR 1200   52 54  260/  7/  8 1025.6R
KEWAUNEE LKSHORE 1200   51     300/  7/  8 1023.2S
NORTHPORT PIER   1200   57     260/  6/ 13 1023.0S
N MID LAKE BUOY  1200   57 57  250/ 12/ 14 1023.1R         2/ 4
S GREEN BAY BUOY 1200   58     VRB 10/ 12  1025.1R
SISTER BAY LKSHO 1100          260/  6/  8   N/A
CHAMBERS ISLAND  1200   53     190/  2/  5 1023.7S
MENOMINEE LKSHOR 1200   51     180/  4/  5 1024.2R
$$



USA.gov is the U.S. government's official web portal to all federal, state and local government web resources and services.